Fort Myers, FL

11:38 AM EDT on July 26, 2017 (GMT -0400)
Page

Weather History for KFMY - March, 2013

Change the Weather History Date:

Sunday, March 24, 2013

  Actual Average Record
Temperature  
Mean Temperature 77 °F 71 °F  
Max Temperature 83 °F 81 °F 92 °F (1949)
Min Temperature 71 °F 60 °F 40 °F (1950)
Degree Days  
Heating Degree Days 0 0  
Month to date heating degree days 61 21  
Since 1 July heating degree days 177 281  
Cooling Degree Days 12 6  
Month to date cooling degree days 62 130  
Year to date cooling degree days 373 315  
Growing Degree Days 26 (Base 50)    
Moisture  
Dew Point 71 °F    
Average Humidity 84    
Maximum Humidity 94    
Minimum Humidity 69    
Precipitation  
Precipitation 0.05 in 0.10 in 1.92 in (1983)
Month to date precipitation 0.78 2.27  
Year to date precipitation 3.26 6.36  
Sea Level Pressure  
Sea Level Pressure 29.76 in    
Wind  
Wind Speed 12 mph (SW)    
Max Wind Speed 23 mph    
Max Gust Speed 32 mph    
Visibility 9 miles    
Events Rain    
T = Trace of Precipitation, MM = Missing Value Source: NWS Daily Summary

Daily Weather History Graph

Daily Weather History Graph

Search for Another Location

Airport or City:

Trip Planner

Search our weather history database for the weather conditions in past years. The results will help you decide how hot, cold, wet, or windy it might be!

Date:

Astronomy

Mar. 24, 2013 Rise Set
Actual Time 7:26 AM EDT 7:40 PM EDT
Civil Twilight 7:03 AM EDT 8:03 PM EDT
Nautical Twilight 6:36 AM EDT 8:31 PM EDT
Astronomical Twilight 6:09 AM EDT 8:58 PM EDT
Moon 5:18 PM EDT (3/24) 5:22 AM EDT (3/24)
Length of Visible Light 13h 00m
Length of Day
12h 14m
Waxing Gibbous, 91% of the Moon is Illuminated
Mar 24
Waxing Gibbous
Mar 27
Full
Apr 3
Last Quarter
Apr 10
New
Apr 18
First Quarter

Hourly Weather History & Observations

Time (EDT) Temp. Heat Index Dew Point Humidity Pressure Visibility Wind Dir Wind Speed Gust Speed Precip Events Conditions
12:53 AM 72.0 °F - 66.0 °F 81% 29.86 in 10.0 mi SSE 4.6 mph - N/A   Clear
1:53 AM 72.0 °F - 66.0 °F 81% 29.84 in 10.0 mi SSE 4.6 mph - N/A   Clear
2:53 AM 72.0 °F - 66.9 °F 84% 29.82 in 10.0 mi SSE 5.8 mph - N/A   Clear
3:53 AM 72.0 °F - 66.9 °F 84% 29.80 in 10.0 mi SSE 8.1 mph - N/A   Clear
4:53 AM 72.0 °F - 68.0 °F 87% 29.78 in 9.0 mi South 6.9 mph - N/A   Scattered Clouds
5:32 AM 71.6 °F - 69.8 °F 94% 29.75 in 8.0 mi South 9.2 mph - N/A   Mostly Cloudy
5:53 AM 71.1 °F - 69.1 °F 93% 29.76 in 8.0 mi South 6.9 mph - N/A   Scattered Clouds
6:53 AM 75.0 °F - 71.1 °F 87% 29.75 in 10.0 mi South 12.7 mph 21.9 mph N/A   Clear
7:53 AM 75.0 °F - 71.1 °F 87% 29.74 in 9.0 mi South 15.0 mph 24.2 mph N/A   Partly Cloudy
8:53 AM 77.0 °F - 72.0 °F 84% 29.75 in 10.0 mi SSW 13.8 mph 25.3 mph N/A   Mostly Cloudy
9:53 AM 77.0 °F - 72.0 °F 84% 29.78 in 10.0 mi SSW 17.3 mph 25.3 mph N/A   Overcast
10:53 AM 79.0 °F - 72.0 °F 79% 29.79 in 10.0 mi SSW 18.4 mph 28.8 mph N/A   Overcast
11:53 AM 80.1 °F 83.8 °F 72.0 °F 76% 29.80 in 10.0 mi SSW 16.1 mph 29.9 mph N/A   Overcast
12:53 PM 80.1 °F 83.8 °F 72.0 °F 76% 29.82 in 10.0 mi SW 13.8 mph - N/A   Overcast
1:53 PM 81.0 °F 85.2 °F 72.0 °F 74% 29.78 in 9.0 mi SW 12.7 mph 21.9 mph N/A   Overcast
2:53 PM 82.9 °F 87.5 °F 71.1 °F 67% 29.75 in 10.0 mi SW 17.3 mph 26.5 mph N/A   Mostly Cloudy
3:21 PM 80.6 °F 84.6 °F 71.6 °F 74% 29.73 in 10.0 mi SW 18.4 mph 27.6 mph N/A   Scattered Clouds
3:53 PM 81.0 °F 84.9 °F 71.1 °F 72% 29.73 in 10.0 mi SW 15.0 mph 26.5 mph N/A   Scattered Clouds
4:18 PM 80.6 °F 84.6 °F 71.6 °F 74% 29.72 in 10.0 mi SW 18.4 mph 26.5 mph N/A   Overcast
4:30 PM 80.6 °F 84.6 °F 71.6 °F 74% 29.71 in 10.0 mi SW 17.3 mph 24.2 mph N/A   Mostly Cloudy
4:53 PM 81.0 °F 84.9 °F 71.1 °F 72% 29.71 in 10.0 mi SW 16.1 mph 25.3 mph N/A   Scattered Clouds
5:53 PM 79.0 °F - 71.1 °F 77% 29.70 in 10.0 mi WSW 13.8 mph 25.3 mph N/A   Overcast
6:53 PM 75.0 °F - 72.0 °F 90% 29.72 in 3.0 mi SW 11.5 mph - 0.03 in Rain Light Rain
7:15 PM 75.2 °F - 71.6 °F 89% 29.72 in 7.0 mi SW 9.2 mph - 0.02 in Rain Light Rain
7:53 PM 75.0 °F - 72.0 °F 90% 29.73 in 7.0 mi WSW 6.9 mph - 0.02 in Rain Light Rain
8:00 PM 75.2 °F - 71.6 °F 89% 29.73 in 9.0 mi SW 5.8 mph - 0.00 in Rain Light Rain
8:53 PM 75.9 °F - 72.0 °F 87% 29.75 in 9.0 mi WSW 12.7 mph - 0.00 in   Overcast
9:08 PM 75.2 °F - 71.6 °F 89% 29.75 in 9.0 mi WSW 16.1 mph 19.6 mph N/A   Overcast
9:16 PM 75.2 °F - 71.6 °F 89% 29.76 in 9.0 mi WSW 12.7 mph - N/A   Overcast
9:29 PM 75.2 °F - 71.6 °F 89% 29.76 in 8.0 mi WSW 10.4 mph - N/A   Overcast
9:53 PM 75.0 °F - 73.0 °F 94% 29.76 in 8.0 mi WSW 9.2 mph - N/A   Overcast
10:03 PM 75.2 °F - 73.4 °F 94% 29.76 in 8.0 mi WSW 12.7 mph - N/A   Overcast
10:53 PM 75.0 °F - 73.0 °F 94% 29.78 in 7.0 mi WSW 10.4 mph - N/A   Overcast
11:23 PM 75.2 °F - 73.4 °F 94% 29.77 in 7.0 mi WSW 9.2 mph - N/A   Overcast
11:53 PM 75.9 °F - 73.0 °F 91% 29.78 in 7.0 mi West 10.4 mph - N/A   Overcast